Location: Ecklingerode
(51.5036°N, 10.3122°E)
Time: 00:40:29
(UTC+00:00)

Cosmos 2266 Rocket - Pass Details

Date: 29 October 2020
Orbit: 935 x 1007 km, 82.9° (Epoch: 23 November)

Event Time Altitude Azimuth Distance (km) Brightness Sun altitude
Rises 16:22:00 0° 348° (NNW) 3,663 7.0 -4.6°
Reaches altitude 10° 16:24:30 10° 347° (NNW) 2,723 6.3 -5.0°
Maximum altitude 16:30:44 76° 264° (W) 1,015 4.3 -5.9°
Drops below altitude 10° 16:37:02 10° 180° (S) 2,752 6.5 -6.9°
Sets 16:39:34 0° 178° (S) 3,705 7.2 -7.2°
